Regional Weather Roundup
Issued by NWS

Home | Current Version | Previous Version | Graphics & Text | Print | Product List | Glossary On
Versions: 1 2 3 4 5 6 7 8 9 10 11 12 13 14 15 16 17 18 19 20 21 22 23 24 25 26 27 28 29 30 31 32 33 34 35 36 37 38 39 40 41 42 43 44 45 46 47 48 49 50
000
ASUS45 KABQ 021201
RWRNM
NEW MEXICO REGIONAL WEATHER ROUNDUP
NATIONAL WEATHER SERVICE ALBUQUERQUE NM
600 AM MDT THU JUL 02 2015

NOTE: "FAIR" MEANS FEW OR NO CLOUDS BELOW 12,000 FEET AGL WITH NO
       SIGNIFICANT WEATHER OR OBSTRUCTIONS TO VISION.

      THIS PRODUCT IS RELEASED AS TWO VERSIONS.  ONE VERSION NEAR
      THE TOP OF THE HOUR CONTAINING PRELIMINARY DATA FROM ALBUQUERQUE
      AND OTHER STATIONS.  A FINAL VERSION WITH ADDITIONAL DATA IS
      ISSUED ABOUT 10 MINUTES AFTER THE HOUR.

NMZ501-503-504-510>518-021300-
NORTHWEST PLATEAU/NORTHCENTRAL MOUNTAINS

CITY           SKY/WX    TMP DP  RH WIND       PRES   REMARKS
FARMINGTON     CLEAR     70  53  54 NE8       30.16S
6HR MIN TEMP:  70; 6HR MAX TEMP:  77; 6HR PCP: TRACE;

SANTA FE       MOCLDY    62  56  80 N12       30.23R
6HR MIN TEMP:  62; 6HR MAX TEMP:  69;

TAOS           CLOUDY    55  46  71 CALM      30.32R

$$
NMZ402-403-502-505>509-021300-
WESTCENTRAL MOUNTAINS/SOUTHWEST MOUNTAINS

CITY           SKY/WX    TMP DP  RH WIND       PRES   REMARKS
GALLUP         CLOUDY    62  53  72 CALM      30.26R
6HR MIN TEMP:  61; 6HR MAX TEMP:  66; 6HR PCP:  0.01;

SILVER CITY      N/A     68  54  60 NW13      30.13S

$$
NMZ407-409-411-412-021300-
SOUTHERN DESERTS

CITY           SKY/WX    TMP DP  RH WIND       PRES   REMARKS
DEMING         CLEAR     71  56  58 SW8       30.04R
6HR MIN TEMP:  71; 6HR MAX TEMP:  83;

HOLLOMAN AFB   PTCLDY    67  46  46 N9        30.00S
ALAMOGORDO     PTCLDY    64  46  52 E3        30.02S
T OR C         PTCLDY    75  54  47 NW6       30.06S
6HR MIN TEMP:  74; 6HR MAX TEMP:  82;


$$
NMZ519>523-021300-
CENTRAL VALLEYS/CENTRAL HIGHLANDS

CITY           SKY/WX    TMP DP  RH WIND       PRES   REMARKS
ALBUQUERQUE    CLOUDY    73  54  51 NW7       30.14R
6HR MIN TEMP:  73; 6HR MAX TEMP:  82; 6HR PCP: TRACE;

DOUBLE EAGLE   MOCLDY    70  54  56 N8        30.18S
CLINES CORNERS CLOUDY    63  53  70 NE9       30.25R
6HR MIN TEMP:  60; 6HR MAX TEMP:  70; 6HR PCP:  0.11;

BELEN          FAIR      73  51  46 NW7       30.13R
6HR MIN TEMP:  71; 6HR MAX TEMP:  78;

SOCORRO        NOT AVBL

$$
NMZ524>526-539-540-021300-
SOUTHCENTRAL MOUNTAINS

CITY           SKY/WX    TMP DP  RH WIND       PRES   REMARKS
RUIDOSO        NOT AVBL

$$
NMZ527>531-021300-
NORTHEAST HIGHLANDS/NORTHEAST PLAINS

CITY           SKY/WX    TMP DP  RH WIND       PRES   REMARKS
LAS VEGAS      CLOUDY    59  55  87 CALM      30.25F
6HR MIN TEMP:  57; 6HR MAX TEMP:  64; 6HR PCP:  0.02;

RATON          CLOUDY    60  57  89 CALM      30.21S
6HR MIN TEMP:  58; 6HR MAX TEMP:  61;

CLAYTON        CLOUDY    65  58  78 W5        30.10R
6HR MIN TEMP:  64; 6HR MAX TEMP:  65; 6HR PCP:  0.05;


$$
NMZ532>537-021300-
EASTCENTRAL PLAINS

CITY           SKY/WX    TMP DP  RH WIND       PRES   REMARKS
TUCUMCARI      CLOUDY    71  62  73 CALM      30.04F
6HR MIN TEMP:  70; 6HR MAX TEMP:  82; 6HR PCP: TRACE;

CANNON AFB     CLEAR     69  60  73 NW6       30.06F
6HR MIN TEMP:  69; 6HR MAX TEMP:  74;

CLOVIS AIRPORT MOCLDY    70  59  68 NW6         N/A

$$
NMZ028-029-538-021300-
SOUTHEAST PLAINS

CITY           SKY/WX    TMP DP  RH WIND       PRES   REMARKS
ROSWELL        PTCLDY    68  60  75 E6        30.04R
6HR MIN TEMP:  67; 6HR MAX TEMP:  79;

ARTESIA        MOCLDY    70  64  83 CALM      30.04R
CARLSBAD       PTCLDY    68  62  81 S3        30.00R
6HR MIN TEMP:  68; 6HR MAX TEMP:  79;

HOBBS          CLOUDY    66  66 100 SE6       30.05F


$$



USA.gov is the U.S. government's official web portal to all federal, state and local government web resources and services.